Vertical_Velocity
-0 2 -4 -3 1 -3 1 -1 -1 -0 0 0 -2 0 -3 -5 -4 -1 -8 -2 -2 -0 0 0 1 1 1 1 1 1 -7 -0 -3 -1 -6 0 -0 1 3 -1 2 2 1 1 -5
1 -0 -1 1 1 -3 1 -2 -1 -1 -0 1 -1 -2 -1 -4 -7 -6 -0 -2 -1 0 -0 1 -1 -1 0 0 2 -4 -2 -4 -3 -1 -1 -0 1 1 -0 0 -1 0 -0 0 -1
3 -2 1 1 -2 -4 1 1 -1 3 -6 3 -1 -2 -0 -3 -7 -8 -1 2 -1 1 0 -0 2 1 -0 1 1 1 -4 -2 -3 -0 1 -0 -1 1 -1 0 -3 -10 -3 -1 -2
-1 -2 1 3 -1 -0 -1 0 -3 5 -3 0 4 -4 -1 -0 -10 1 2 5 4 -1 0 1 1 1 0 0 2 -1 -1 -1 -4 -1 1 -1 -1 -1 -0 -3 2 -1 -1 -3 -3
0 -1 2 6 -1 -1 -3 -1 -2 -3 5 -5 4 -1 -0 1 -37 6 0 1 7 3 0 2 1 -1 -0 0 -0 1 -1 2 -1 3 -1 3 -1 -2 -3 -0 -1 3 3 -2 -2
-1 1 -0 -1 -3 2 -2 -1 -1 -2 5 -1 5 2 1 0 -12 4 -2 -5 7 4 4 2 -1 3 0 -1 0 1 1 -0 -1 -0 1 0 -1 0 -8 5 0 2 -2 1 -3
-2 -1 0 2 -2 3 -2 -2 -4 -6 5 -1 3 7 3 -56 -4 1 1 1 -2 9 -4 2 0 2 1 -1 1 1 -0 -2 0 -3 -2 2 -5 -2 -4 -0 2 -0 1 2 9
0 -2 -0 0 -1 2 0 -0 5 3 -1 3 2 5 -10 -17 -8 -14 7 -0 -2 3 5 2 1 2 1 1 -3 0 -3 -0 -4 1 -4 -2 -11 -5 5 3 -3 -0 1 1 4
-1 1 -1 -0 0 0 -2 6 7 12 -0 2 2 3 -20 6 -12 -14 10 -9 3 4 4 6 2 -0 3 -3 -4 -2 -2 1 -7 -1 -1 -2 -5 -9 4 1 -1 1 -2 0 2
-1 0 -0 1 1 -1 1 6 4 27 7 9 8 -2 -1 -13 -10 -12 -2 1 2 4 5 7 0 -0 -1 -2 -6 -4 1 0 -1 -2 1 -0 -5 -3 -0 2 -4 2 1 -0 -2
-0 -1 0 1 2 -0 -1 -3 3 9 18 -19 -11 -15 4 1 11 -7 1 5 9 10 -0 0 -1 -3 -5 -3 -1 -1 0 -1 -2 -3 1 -2 -1 -5 -3 2 1 0 -1 -3 -4
-0 1 1 0 1 1 3 11 5 -4 -3 -13 0 11 -2 2 3 -8 15 9 4 -2 3 2 -4 -5 -1 1 -0 1 -0 -2 -5 -1 0 -1 -4 -3 -0 -3 -3 -1 -1 -2 -2
-0 1 -1 3 1 -0 -7 -8 11 6 4 -8 -13 -11 -9 21 -5 -8 5 -0 -3 4 -0 -3 -4 1 1 1 2 -0 -1 -1 -3 -1 -2 1 -2 -2 -4 1 2 -0 3 5 -8
1 1 1 4 11 -5 -4 -5 8 1 4 -9 2 -24 -1 9 -5 -9 6 -8 4 -11 -1 -5 -9 -1 1 -1 -2 4 -3 0 1 1 -5 -4 -8 -1 -2 -2 1 -2 1 -5 -3
1 3 3 6 6 -0 5 5 4 -6 8 -4 1 19 -4 -12 -5 -16 -11 10 -5 -1 -4 -25 1 3 3 -12 -0 -11 -1 -3 -0 1 2 -0 3 -11 1 0 -3 -3 -1 -3 -2
1 2 3 2 4 1 5 4 22 8 -3 -8 1 1 5 16 -1 8 1 18 -7 1 4 -14 1 -2 -15 -3 -3 -2 -1 -1 -1 -1 8 -5 2 -12 -3 -9 -1 -1 -2 -2 -1
0 -0 1 6 -14 4 2 13 12 8 2 -10 1 1 -1 0 8 7 1 8 -9 7 6 4 -5 -1 0 1 5 4 -0 -1 -0 2 -6 -0 4 -29 -1 -2 -4 -4 -5 -2 1
2 2 1 0 5 16 10 9 12 -16 -3 -2 1 6 -3 -6 -3 0 7 6 8 4 0 -2 8 4 -6 -8 -12 -6 -8 -7 -7 -3 -5 0 -7 -26 -4 -3 -4 -1 0 3 2
4 0 -6 -7 6 24 1 9 -11 -1 -13 3 -1 6 2 4 -9 13 -0 -5 -10 -7 -11 2 -5 1 1 -1 -13 -3 2 -24 -4 -1 -3 -5 -9 -6 1 -0 1 -1 1 -4 -0
1 6 -18 4 6 31 8 -10 -1 -3 4 6 2 1 -1 -4 15 10 1 -17 -5 -5 -1 -4 -2 -3 -7 13 0 -12 -17 1 1 -1 -1 -2 -2 -9 1 -2 -1 1 -2 -2 5
10 13 -11 -2 13 31 -1 -6 -1 -7 12 14 -3 3 -7 -5 -2 -3 -14 -14 1 -1 3 -2 -4 -7 6 2 -15 6 5 2 -7 -4 -5 -2 -15 -7 -5 -3 -2 -3 -3 -2 -2
8 6 0 2 13 -1 -0 -8 -3 -4 2 -3 8 2 2 -1 1 4 -11 -19 -3 -8 -3 -21 -3 -1 -21 -11 -6 -6 -10 -5 2 -4 -2 -3 -32 -1 -2 -2 -1 -3 -2 0 2
6 -0 8 -1 1 -1 3 -1 -4 6 -3 2 -0 1 -1 1 8 1 -0 -21 1 3 -14 -13 -1 1 6 4 6 3 -4 -3 -0 -3 -6 -5 -34 1 1 1 -3 -2 -1 -0 0
13 1 7 27 -2 0 0 -3 2 -2 -3 1 -2 10 5 4 -3 -3 0 -1 -1 -2 2 8 2 -9 -20 -38 -7 4 3 0 -0 5 -15 -14 -9 1 0 -1 -0 -2 -1 0 -1
7 -4 -13 -3 8 2 4 0 2 1 0 5 2 0 -4 2 1 -1 0 3 6 -4 2 2 -1 6 -6 -1 2 -5 -3 -1 4 -16 4 -32 -1 -10 -3 -3 -5 -6 4 1 -0
-9 -7 8 -0 4 5 1 -4 -3 -2 2 -2 8 -4 3 2 -6 0 -2 -1 -9 7 1 1 -4 5 -2 0 3 1 -0 0 -0 -1 4 4 -8 -3 -4 2 1 -2 1 -0 -1
9 3 -10 -3 3 5 -11 -15 -14 2 -3 -3 -4 6 6 -21 -5 -16 2 -1 -1 -2 -1 0 1 1 -14 0 2 13 -22 -3 -4 0 -6 0 -39 -0 2 0 -3 -3 -0 -5 -6
Height
1505 1506 1507 1510 1510 1512 1514 1517 1519 1521 1522 1523 1524 1523 1522 1521 1519 1519 1518 1521 1520 1520 1520 1520 1521 1520 1519 1519 1521 1521 1533 1539 1524 1520 1510 1503 1504 1505 1505 1505 1506 1506 1507 1508 1510
1501 1502 1504 1506 1506 1508 1509 1513 1516 1518 1519 1521 1522 1521 1521 1520 1518 1514 1517 1516 1517 1518 1519 1519 1519 1519 1519 1518 1519 1520 1533 1525 1512 1508 1505 1503 1502 1503 1505 1505 1506 1507 1508 1509 1511
1497 1498 1500 1502 1503 1505 1506 1508 1512 1514 1516 1518 1519 1519 1520 1519 1518 1513 1513 1513 1513 1515 1516 1517 1518 1518 1518 1517 1516 1518 1524 1513 1507 1505 1504 1503 1501 1502 1503 1506 1505 1506 1508 1510 1512
1493 1495 1497 1497 1499 1501 1502 1504 1507 1509 1512 1515 1516 1516 1518 1520 1523 1511 1511 1512 1512 1513 1515 1516 1516 1517 1517 1516 1513 1516 1511 1509 1505 1505 1505 1503 1503 1503 1503 1503 1503 1505 1506 1508 1510
1488 1490 1493 1494 1496 1496 1498 1500 1503 1506 1509 1511 1513 1513 1515 1516 1509 1510 1509 1511 1513 1512 1514 1515 1515 1516 1516 1514 1513 1512 1509 1506 1505 1504 1504 1503 1503 1503 1502 1502 1502 1505 1506 1507 1508
1484 1485 1488 1489 1492 1493 1493 1497 1500 1502 1504 1506 1509 1510 1512 1510 1506 1508 1508 1510 1512 1511 1512 1513 1514 1514 1514 1512 1512 1509 1507 1506 1505 1504 1502 1503 1503 1502 1499 1500 1502 1502 1504 1505 1505
1479 1481 1482 1484 1487 1490 1491 1492 1496 1499 1500 1502 1505 1505 1502 1494 1502 1503 1504 1507 1509 1509 1510 1512 1512 1513 1512 1510 1509 1507 1509 1505 1504 1504 1503 1502 1505 1502 1496 1498 1499 1500 1502 1503 1504
1474 1476 1478 1479 1482 1485 1487 1490 1491 1493 1495 1499 1502 1501 1491 1490 1498 1499 1502 1503 1506 1508 1508 1509 1510 1511 1510 1509 1508 1509 1510 1516 1502 1501 1500 1502 1511 1493 1493 1496 1496 1497 1499 1501 1501
1470 1471 1473 1475 1477 1480 1484 1485 1486 1488 1492 1494 1499 1500 1489 1485 1485 1492 1498 1501 1504 1506 1507 1507 1508 1509 1509 1512 1520 1516 1524 1518 1507 1497 1498 1502 1502 1487 1488 1491 1489 1491 1495 1497 1497
1466 1468 1469 1472 1474 1476 1479 1480 1484 1484 1486 1494 1496 1502 1484 1474 1478 1484 1493 1499 1501 1504 1506 1505 1505 1508 1510 1515 1528 1519 1520 1512 1510 1497 1498 1501 1498 1484 1484 1483 1482 1485 1490 1492 1493
1462 1463 1465 1467 1470 1472 1476 1479 1483 1485 1478 1475 1475 1473 1472 1469 1476 1478 1486 1493 1498 1501 1503 1501 1506 1507 1503 1503 1502 1505 1508 1509 1502 1495 1497 1499 1496 1483 1483 1482 1483 1485 1486 1487 1488
1457 1459 1461 1464 1467 1469 1471 1473 1474 1475 1476 1472 1472 1473 1471 1471 1471 1471 1481 1485 1488 1493 1496 1503 1495 1493 1496 1499 1501 1503 1507 1509 1500 1493 1499 1495 1493 1482 1481 1480 1479 1479 1481 1483 1485
1453 1455 1458 1461 1464 1465 1465 1466 1471 1471 1472 1462 1461 1465 1468 1472 1471 1465 1474 1475 1476 1487 1486 1488 1486 1487 1495 1499 1502 1503 1506 1507 1504 1495 1491 1490 1493 1483 1474 1475 1474 1475 1478 1479 1478
1449 1451 1455 1458 1462 1459 1458 1465 1469 1469 1474 1456 1454 1445 1457 1466 1462 1461 1465 1469 1472 1472 1482 1486 1483 1487 1490 1492 1496 1504 1494 1495 1500 1504 1516 1491 1500 1485 1477 1471 1469 1468 1469 1472 1472
1443 1446 1450 1454 1454 1454 1459 1461 1467 1469 1457 1439 1441 1439 1440 1451 1446 1448 1459 1464 1464 1466 1475 1470 1476 1482 1487 1476 1485 1485 1485 1493 1497 1501 1501 1496 1507 1485 1470 1473 1465 1461 1462 1463 1465
1437 1440 1445 1447 1447 1451 1458 1462 1465 1468 1447 1442 1431 1427 1437 1437 1441 1446 1449 1455 1459 1465 1465 1462 1467 1471 1463 1474 1477 1480 1486 1491 1495 1500 1500 1493 1498 1462 1471 1459 1458 1454 1454 1455 1458
1432 1435 1439 1441 1439 1448 1456 1462 1464 1446 1444 1436 1416 1423 1428 1432 1440 1444 1442 1444 1446 1464 1463 1464 1464 1462 1462 1471 1474 1479 1488 1511 1516 1517 1492 1477 1492 1430 1447 1446 1445 1447 1447 1449 1450
1426 1430 1431 1433 1439 1444 1450 1458 1436 1423 1432 1420 1417 1421 1429 1427 1431 1432 1435 1437 1436 1438 1451 1464 1473 1452 1452 1454 1466 1470 1476 1496 1502 1513 1482 1478 1480 1443 1436 1437 1440 1441 1441 1444 1444
1420 1421 1421 1423 1431 1438 1443 1448 1437 1420 1414 1419 1415 1418 1424 1419 1422 1429 1424 1421 1419 1421 1433 1448 1448 1433 1437 1443 1448 1466 1473 1455 1480 1490 1506 1479 1460 1442 1435 1435 1434 1435 1437 1437 1438
1412 1414 1408 1416 1425 1431 1430 1423 1420 1422 1424 1415 1412 1406 1418 1412 1417 1421 1417 1407 1409 1410 1413 1424 1440 1425 1432 1443 1440 1440 1441 1470 1477 1491 1496 1474 1465 1444 1435 1433 1430 1432 1430 1430 1434
1407 1407 1395 1407 1418 1416 1405 1413 1418 1419 1419 1418 1405 1401 1400 1404 1406 1410 1401 1399 1401 1407 1416 1416 1424 1426 1424 1426 1425 1442 1445 1450 1450 1468 1462 1470 1449 1424 1423 1423 1423 1422 1420 1423 1426
1397 1396 1390 1399 1408 1397 1398 1403 1410 1408 1414 1413 1402 1402 1400 1394 1394 1395 1393 1387 1384 1395 1404 1401 1421 1430 1415 1410 1413 1416 1425 1428 1439 1452 1451 1466 1415 1407 1410 1414 1414 1415 1416 1420 1424
1382 1386 1386 1390 1392 1390 1392 1393 1400 1404 1402 1403 1402 1395 1389 1387 1387 1381 1382 1379 1384 1388 1392 1402 1411 1429 1422 1418 1413 1410 1404 1411 1425 1440 1442 1465 1401 1400 1405 1409 1410 1412 1414 1416 1421
1373 1376 1377 1377 1379 1384 1387 1388 1391 1391 1393 1394 1392 1395 1389 1386 1380 1373 1374 1377 1380 1381 1384 1390 1392 1397 1400 1393 1399 1408 1404 1404 1414 1433 1414 1423 1399 1405 1406 1406 1407 1409 1411 1413 1417
1355 1354 1352 1359 1364 1367 1376 1380 1380 1383 1383 1384 1385 1380 1379 1378 1381 1371 1366 1374 1374 1376 1381 1385 1392 1392 1388 1391 1392 1391 1394 1395 1399 1398 1412 1386 1404 1400 1404 1404 1403 1404 1407 1410 1413
1339 1341 1346 1348 1356 1366 1371 1370 1372 1374 1372 1372 1371 1365 1376 1371 1368 1371 1369 1365 1365 1369 1374 1376 1384 1387 1388 1388 1391 1399 1391 1390 1386 1382 1393 1388 1391 1391 1396 1397 1398 1400 1403 1405 1408
1322 1331 1336 1342 1351 1359 1356 1354 1353 1364 1364 1366 1367 1368 1365 1362 1368 1371 1369 1363 1360 1360 1368 1374 1378 1391 1382 1386 1398 1399 1379 1377 1382 1379 1380 1391 1359 1387 1389 1390 1392 1394 1396 1398 1401